Regional Weather Roundup
Issued by NWS

Home | Current Version | Previous Version | Text Only | Print | Product List | Glossary On
Versions: 1 2 3 4 5 6 7 8 9 10 11 12 13 14 15 16 17 18 19 20 21 22 23 24 25 26 27 28 29 30 31 32 33 34 35 36 37 38 39 40 41 42 43 44 45 46 47 48 49 50
000
ASUS43 KMPX 191201
RWRMN
WEATHER ROUNDUP FOR MINNESOTA
NATIONAL WEATHER SERVICE TWIN CITIES/CHANHASSEN MN
600 AM CST MON FEB 19 2018


NOTE: "FAIR" INDICATES FEW OR NO CLOUDS BELOW 12,000 FEET WITH NO
SIGNIFICANT WEATHER AND/OR OBSTRUCTIONS TO VISIBILITY. N/A MEANS
CURRENT SKY AND/OR WEATHER CONDITIONS ARE NOT AVAILABLE.

MNZ060>063-068>070-191300-
   Twin Cities Metro

CITY           SKY/WX    TMP DP  RH WIND       PRES   REMARKS
TWIN CITIES    CLOUDY    22  18  85 N15       29.86R WCI   9
6HR MIN TEMP:  22; 6HR MAX TEMP:  27;

ST PAUL        CLOUDY    23  18  81 N15G21    29.88R WCI  10
CRYSTAL        CLOUDY    20  13  74 N17       29.88R WCI   5
BLAINE         CLOUDY    21  16  79 N14       29.89R WCI   8
LAKEVILLE      CLOUDY    21  19  93 N10G18    29.84R WCI  10
EDEN PRAIRIE   CLOUDY    21  15  78 N15G21    29.86R WCI   8
6HR MIN TEMP:  21; 6HR MAX TEMP:  27;

SOUTH ST PAUL  CLOUDY    25  20  82 N12G17    29.85R WCI  14
LAKE ELMO      CLOUDY    27  23  86 N13       29.85R WCI  16
$$
MNZ001>005-007-008-013>017-022>024-027-028-191300-
   Northwest Minnesota

CITY           SKY/WX    TMP DP  RH WIND       PRES   REMARKS
BEMIDJI        CLOUDY     4  -2  78 N10G16    30.08R WCI -12
HALLOCK        FAIR      -2 -11  65 N8        30.24R WCI -17
WARROAD        FAIR      -2  -8  78 N9        30.20R WCI -18
THIEF RVR FALL FAIR       0  -6  76 N13       30.17R WCI -18
CROOKSTON      FAIR       1  -6  71 N9        30.20R WCI -14
FOSSTON        FAIR       3  -2  78 N9        30.12R WCI -11
DETROIT LAKES  FAIR       9   3  78 N8        30.05F WCI  -4
MOORHEAD       FAIR       7  -2  66 N17       30.13S WCI -12
PARK RAPIDS    CLOUDY     5   0  79 N13       30.03R WCI -12
MAHNOMEN       CLOUDY     5  -1  76 N14       30.09R WCI -13
$$
MNZ006-009>011-018-025>026-191300-
   North Central Minnesota

CITY           SKY/WX    TMP DP  RH WIND       PRES   REMARKS
BAUDETTE       FAIR      -4  -7  87 N5        30.14R WCI -15
FLAG ISLAND    FAIR      -6 -11  77 N8        30.19S WCI -21
INTL FALLS     FAIR       3  -2  79 NE6       30.13R WCI  -8
6HR MIN TEMP:   3; 6HR MAX TEMP:   5;

WASKISH        FAIR       3   0  85 N8        30.12R WCI -10
BIG FORK       FAIR       3   0  85 N8        30.08R WCI -10
LONGVILLE      CLOUDY     5   0  78 N6        30.04R WCI  -6
GRAND RAPIDS   CLOUDY     4  -1  80 N10       30.07R WCI -11
CRANE LAKE     FAIR       1  -2  85 N5        30.13R WCI  -8
ORR            FAIR       3  -4  72 CALM      30.05R
COOK           CLOUDY     1  -2  85 N5        30.05R WCI  -8
WALKER         CLOUDY     4  -1  78 N12       30.06R WCI -12
$$
MNZ012-019>021-037-191300-
   Northeast Minnesota

CITY           SKY/WX    TMP DP  RH WIND       PRES   REMARKS
DULUTH         CLOUDY    10   4  76 NE12      29.94R WCI  -5
6HR MIN TEMP:  10; 6HR MAX TEMP:  14; 6HR PCP: TRACE;

ELY            FAIR       0  -4  85 N5        30.03R WCI -10
HIBBING        FAIR       3  -2  79 N12       30.02R WCI -13
EVELETH        FAIR     N/A N/A N/A N9G16     30.03R
DULUTH HARBOR  CLOUDY    18  12  79 NE22      30.00R WCI   0
TWO HARBORS    FAIR      14   7  73 N8        29.95R WCI   3
G MARAIS ARPRT FAIR       0  -8  71 N18       29.93F WCI -22
$$
MNZ029>031-032-039>041-046>048-054>057-064-191300-
   West Central Minnesota

CITY           SKY/WX    TMP DP  RH WIND       PRES   REMARKS
FERGUS FALLS   CLOUDY     9   1  72 N15G22    30.05R WCI  -8
WHEATON        LGT SNOW   9   3  78 N17G25    30.08R WCI -10
MORRIS         LGT SNOW  12   7  79 N17       30.01R WCI  -5
ALEXANDRIA     CLOUDY    11   5  77 N16G23    29.98R WCI  -6
ELBOW LAKE     FLURRIES  11   5  77 NE13      30.03R WCI  -4
WADENA         FLURRIES   7   1  78 N15       30.00R WCI -11
GLENWOOD       LGT SNOW  10   9  92 N16       29.98R WCI  -7
APPLETON       LGT SNOW  14  10  85 N18       30.00S WCI  -3
BENSON         LGT SNOW  14  10  85 NE10      30.00R WCI   1
ORTONVILLE     LGT SNOW  10   5  79 N18G28    30.01R WCI  -8
MADISON        LGT SNOW  14  10  85 N20G25    29.99S WCI  -3
WILLMAR        CLOUDY    14  10  85 N15       29.96R WCI  -1
$$
MNZ033>034-036-042>043-049>051-058-059-191300-
   Central Minnesota

CITY           SKY/WX    TMP DP  RH WIND       PRES   REMARKS
ST CLOUD       LGT SNOW  13   9  84 N13G22    29.94R FOG     WCI  -2
6HR MIN TEMP:  13; 6HR MAX TEMP:  21; 6HR PCP:  0.05;

SAUK CENTRE    LGT SNOW  11   7  85 N13       29.97R WCI  -4
PAYNESVILLE    LGT SNOW  13  11  90 N10G16    29.94S WCI   0
AITKIN         FAIR       9   1  72 N10       30.01R WCI  -6
PINE RIVER     CLOUDY     7   1  78 N9        30.07R WCI  -7
BRAINERD       CLOUDY    10   2  69 N13       30.00R WCI  -5
STAPLES        CLOUDY     9   1  72 N8G16     30.00R WCI  -4
LONG PRAIRIE   LGT SNOW  10   5  79 NW12G21   29.98R WCI  -4
LITTLE FALLS     N/A    N/A N/A N/A N7          N/A
LITCHFIELD     CLOUDY    16  10  79 N12       29.93R WCI   3
BUFFALO        CLOUDY    18  13  81 N9        29.94R WCI   6
MAPLE LAKE     CLOUDY    17  12  83 N13G20    29.95R WCI   3
HUTCHINSON     CLOUDY    18  13  80 N13G21    29.89S WCI   5
$$
MNZ037-044-045-052-053-191300-
   East Central Minnesota

CITY           SKY/WX    TMP DP  RH WIND       PRES   REMARKS
PRINCETON      LGT SNOW  18  12  79 N12G18    29.93R WCI   5
MORA           LGT SNOW  14  10  85 N6        29.96R WCI   5
CAMBRIDGE      FLURRIES  18  10  73 N10G20    29.92R WCI   6
RUSH CITY      FLURRIES  16  12  84 N18       29.91S WCI  -1
MOOSE LAKE     CLOUDY    12   5  73 N9        29.97R WCI   0
HINCKLEY       LGT SNOW  14  12  92 N12G20    29.94S WCI   0
CLOQUET        CLOUDY     9   1  72 N6        29.96R WCI  -1
MCGREGOR       CLOUDY    10   5  79 N12G17    30.02R WCI  -4
$$
MNZ071>073-080-081-089-090-097-098-191300-
   Southwest Minnesota

CITY           SKY/WX    TMP DP  RH WIND       PRES   REMARKS
MONTEVIDEO     CLOUDY    16  10  79 NE18G24   29.95F WCI  -1
GRANITE FALLS  CLOUDY    18  13  81 N18G25    29.94F WCI   2
CANBY          CLOUDY    13  10  85 N16G22    29.97R FOG     WCI  -3
MARSHALL       CLOUDY    15  10  80 N18G26    29.91S WCI  -2
REDWOOD FALLS  CLOUDY    16  10  77 N20G29    29.89F WCI  -1
OLIVIA         CLOUDY    18  12  79 N17G26    29.90F WCI   2
PIPESTONE      CLOUDY    12   9  85 NE21G29   29.83R WCI  -6
WINDOM         CLOUDY    16   3  57 N25       29.81R WCI  -3
WORTHINGTON    LGT SNOW  16  13  88 N22G30    29.81R FOG     WCI  -2
JACKSON        CLOUDY    19  16  86 VRB21G26  29.79R FOG     WCI   3
TRACY          CLOUDY    17  13  86 N18G25    29.87R WCI   0
SLAYTON        CLOUDY    14  11  87 N22G36    29.83R WCI  -4
$$
MNZ065>067-074>077-082>085-091>093-191300-
   South Central Minnesota

CITY           SKY/WX    TMP DP  RH WIND       PRES   REMARKS
MANKATO        CLOUDY    23  19  85 N20G25    29.82F WCI   8
NEW ULM        CLOUDY    19  14  79 N20       29.84F WCI   4
ST JAMES       CLOUDY    21  18  86 N22G29    29.83R WCI   5
FAIRMONT       MIX PCPN  22  20  92 N21G28    29.80R WCI   6
GLENCOE        CLOUDY    20  16  83 N14G23    29.87S WCI   7
FARIBAULT      MOCLDY    27  21  80 N15       29.81R WCI  15
OWATONNA       CLOUDY    27  21  80 N15       29.78S WCI  15
WASECA         CLOUDY    27  23  86 N22       29.79F WCI  12
ALBERT LEA     CLOUDY    27  23  86 N13       29.75R WCI  16
$$
MNZ078>079-086>088-094>096-191300-
   Southeast Minnesota

CITY           SKY/WX    TMP DP  RH WIND       PRES   REMARKS
ROCHESTER      CLOUDY    27  25  92 N13       29.76R WCI  16
6HR MIN TEMP:  27; 6HR MAX TEMP:  36;

RED WING       CLOUDY    28  19  69 N5        29.81R WCI  23
STANTON        CLOUDY    27  23  84 N14       29.81R WCI  15
DODGE CENTER   CLOUDY    25  21  86 N17       29.76R WCI  11
WINONA         MOCLDY    30  28  93 CALM      29.77R
AUSTIN         CLOUDY    27  25  93 N10       29.74R WCI  17
PRESTON        MOCLDY    31  28  88 CALM      29.75R
$$
ABBREVIATIONS USED IN REMARKS
   TC - TEMPERATURES IN CELSIUS
  WCI - WIND CHILL INDEX
   HX - HEAT INDEX
  VSB - VISIBILITY
$$




USA.gov is the U.S. government's official web portal to all federal, state and local government web resources and services.